SES-19

Last updated on Sun Oct 06 2024 00:02:42 GMT+0000 (Coordinated Universal Time)

1 55971U 23038B 24279.51404709 .00000098 00000+0 00000+0 0 9992 2 55971 0.0291 276.4075 0001615 270.2823 238.1524 1.00272355 5857
UTC large
Height (km)
Speed (km/s)
/
Latitude / Longitude
Inclination (degrees)
Orbital Period (minutes)
Azimuth
Elevation
Range (km)
Doppler Factor

Next 0 passes for location: London (51.5072 / 0.1276)

Sorry there are no passes over London.